| time (UTC) | temp C | wind direction | speed KPH | gust KPH | rain 1hr cm | rain 24hr cm | rain mn cm | humidity % | barometer mb |
| 20260504020211 | 12 | 258 | 9.7 | 17.7 | 0.00 | 0.00 | 0.00 | 84 | 1020.3 |
| 20260504015712 | 12 | 295 | 11.3 | 20.9 | 0.00 | 0.00 | 0.00 | 83 | 1020.4 |
| 20260504015215 | 12 | 250 | 11.3 | 20.9 | 0.00 | 0.00 | 0.00 | 83 | 1020.3 |
| 20260504014712 | 12 | 271 | 9.7 | 17.7 | 0.00 | 0.00 | 0.00 | 83 | 1020.3 |
| 20260504014213 | 12 | 268 | 9.7 | 17.7 | 0.00 | 0.00 | 0.00 | 84 | 1020.3 |
| 20260504014017 | 12 | 274 | 9.7 | 16.1 | 0.00 | 0.00 | 0.00 | 83 | 1020.3 |
| 20260504013212 | 12 | 296 | 8.0 | 16.1 | 0.00 | 0.00 | 0.00 | 82 | 1020.3 |
| 20260504012711 | 12 | 268 | 8.0 | 17.7 | 0.00 | 0.00 | 0.00 | 82 | 1020.4 |
| 20260504012211 | 12 | 283 | 8.0 | 17.7 | 0.00 | 0.00 | 0.00 | 82 | 1020.3 |
| 20260504011710 | 12 | 261 | 8.0 | 17.7 | 0.00 | 0.00 | 0.00 | 82 | 1020.3 |
| 20260504011213 | 12 | 300 | 9.7 | 19.3 | 0.00 | 0.00 | 0.00 | 82 | 1020.2 |
| 20260504010713 | 12 | 240 | 11.3 | 19.3 | 0.00 | 0.00 | 0.00 | 82 | 1020.2 |
| 20260504010210 | 11 | 247 | 4.8 | 14.5 | 0.00 | 0.00 | 0.00 | 82 | 1020.2 |
| 20260504005710 | 11 | 235 | 4.8 | 14.5 | 0.00 | 0.00 | 0.00 | 81 | 1020.2 |
| 20260504005211 | 11 | 237 | 1.6 | 14.5 | 0.00 | 0.00 | 0.00 | 82 | 1020.2 |
| 20260504004710 | 11 | 190 | 8.0 | 11.3 | 0.00 | 0.00 | 0.00 | 82 | 1020.1 |
| 20260504004210 | 11 | 221 | 6.4 | 9.7 | 0.00 | 0.00 | 0.00 | 83 | 1020.1 |
| 20260504003710 | 11 | 206 | 6.4 | 9.7 | 0.00 | 0.00 | 0.00 | 84 | 1020.1 |
| 20260504003319 | 10 | 224 | 4.8 | 6.4 | 0.00 | 0.00 | 0.00 | 83 | 1020.2 |
| 20260504003253 | 11 | 237 | 4.8 | 8.0 | 0.00 | 0.00 | 0.00 | 84 | 1020.1 |
| 20260504002210 | 10 | 240 | 0.0 | 6.4 | 0.00 | 0.00 | 0.00 | 83 | 1020.1 |
| 20260504001711 | 10 | 196 | 0.0 | 9.7 | 0.00 | 0.00 | 0.00 | 83 | 1020.1 |
| 20260504001515 | 11 | 196 | 3.2 | 9.7 | 0.00 | 0.00 | 0.00 | 84 | 1020.1 |
| 20260504001017 | 10 | 206 | 4.8 | 8.0 | 0.00 | 0.00 | 0.00 | 85 | 1020.1 |
| 20260504000211 | 10 | 306 | 0.0 | 4.8 | 0.00 | 0.00 | 0.00 | 85 | 1020.2 |
| 20260504000014 | 10 | 285 | 1.6 | 4.8 | 0.00 | 0.00 | 0.00 | 84 | 1020.2 |
| 20260503235208 | 10 | 0 | 0.0 | 0.0 | 0.00 | 0.00 | 0.00 | 83 | 1020.2 |
| 20260503234957 | 11 | 0 | 0.0 | 3.2 | 0.00 | 0.00 | 0.00 | 83 | 1020.3 |
| 20260503234208 | 11 | 0 | 0.0 | 3.2 | 0.00 | 0.00 | 0.00 | 84 | 1020.3 |
| 20260503234017 | 11 | 0 | 1.6 | 3.2 | 0.00 | 0.00 | 0.00 | 83 | 1020.3 |
| 20260503233500 | 11 | 0 | 0.0 | 6.4 | 0.00 | 0.00 | 0.00 | 83 | 1020.3 |
| 20260503232708 | 11 | 0 | 0.0 | 6.4 | 0.00 | 0.00 | 0.00 | 83 | 1020.4 |
| 20260503232514 | 11 | 0 | 4.8 | 6.4 | 0.00 | 0.00 | 0.00 | 82 | 1020.5 |
| 20260503231712 | 11 | 224 | 0.0 | 0.0 | 0.00 | 0.00 | 0.00 | 82 | 1020.4 |
| 20260503231208 | 11 | 224 | 0.0 | 9.7 | 0.00 | 0.00 | 0.00 | 83 | 1020.4 |
| 20260503230712 | 11 | 224 | 0.0 | 14.5 | 0.00 | 0.00 | 0.00 | 83 | 1020.4 |
| 20260503230516 | 11 | 209 | 3.2 | 14.5 | 0.00 | 0.00 | 0.00 | 83 | 1020.5 |
| 20260503225708 | 12 | 188 | 4.8 | 9.7 | 0.00 | 0.00 | 0.00 | 83 | 1020.5 |
| 20260503225208 | 12 | 207 | 8.0 | 11.3 | 0.00 | 0.00 | 0.00 | 83 | 1020.5 |
| 20260503224708 | 12 | 219 | 6.4 | 11.3 | 0.00 | 0.00 | 0.00 | 83 | 1020.5 |
| 20260503224207 | 12 | 213 | 4.8 | 14.5 | 0.00 | 0.00 | 0.00 | 83 | 1020.7 |
| 20260503223708 | 12 | 224 | 4.8 | 14.5 | 0.00 | 0.00 | 0.00 | 83 | 1020.6 |
| 20260503223513 | 12 | 206 | 6.4 | 11.3 | 0.00 | 0.00 | 0.00 | 83 | 1020.7 |
| 20260503222707 | 12 | 214 | 4.8 | 9.7 | 0.00 | 0.00 | 0.00 | 84 | 1020.8 |
| 20260503222458 | 12 | 235 | 6.4 | 11.3 | 0.00 | 0.00 | 0.00 | 83 | 1020.8 |
| 20260503221707 | 12 | 223 | 6.4 | 11.3 | 0.00 | 0.00 | 0.00 | 84 | 1020.7 |
| 20260503221207 | 12 | 248 | 6.4 | 14.5 | 0.00 | 0.00 | 0.00 | 83 | 1020.8 |
| 20260503221016 | 12 | 206 | 8.0 | 14.5 | 0.00 | 0.00 | 0.00 | 83 | 1020.7 |
| 20260503220206 | 12 | 204 | 6.4 | 17.7 | 0.00 | 0.00 | 0.00 | 83 | 1020.7 |
| 20260503215708 | 12 | 196 | 8.0 | 17.7 | 0.00 | 0.00 | 0.00 | 83 | 1020.6 |
| 20260503215517 | 12 | 199 | 9.7 | 17.7 | 0.00 | 0.00 | 0.00 | 83 | 1020.5 |
| 20260503214706 | 12 | 207 | 9.7 | 16.1 | 0.00 | 0.00 | 0.00 | 83 | 1020.5 |
| 20260503214207 | 12 | 217 | 6.4 | 16.1 | 0.00 | 0.00 | 0.00 | 83 | 1020.5 |
| 20260503213705 | 12 | 210 | 8.0 | 19.3 | 0.00 | 0.00 | 0.00 | 82 | 1020.5 |
| 20260503213206 | 12 | 235 | 9.7 | 20.9 | 0.00 | 0.00 | 0.00 | 82 | 1020.5 |
| 20260503213001 | 12 | 240 | 6.4 | 25.7 | 0.00 | 0.00 | 0.00 | 82 | 1020.5 |
| 20260503212206 | 12 | 254 | 14.5 | 25.7 | 0.00 | 0.00 | 0.00 | 83 | 1020.5 |
| 20260503211705 | 12 | 300 | 11.3 | 24.1 | 0.00 | 0.00 | 0.00 | 82 | 1020.5 |
| 20260503211516 | 12 | 276 | 12.9 | 22.5 | 0.00 | 0.00 | 0.00 | 82 | 1020.5 |
| 20260503210705 | 12 | 261 | 11.3 | 22.5 | 0.00 | 0.00 | 0.00 | 82 | 1020.5 |
| 20260503210206 | 12 | 262 | 11.3 | 22.5 | 0.00 | 0.00 | 0.00 | 81 | 1020.5 |
| 20260503210019 | 12 | 228 | 12.9 | 24.1 | 0.00 | 0.00 | 0.00 | 81 | 1020.5 |
| 20260503205205 | 12 | 241 | 12.9 | 24.1 | 0.00 | 0.00 | 0.00 | 80 | 1020.5 |
| 20260503204704 | 13 | 303 | 6.4 | 25.7 | 0.00 | 0.00 | 0.00 | 79 | 1020.5 |
| 20260503204205 | 13 | 275 | 12.9 | 25.7 | 0.00 | 0.00 | 0.00 | 79 | 1020.5 |
| 20260503203706 | 13 | 305 | 12.9 | 22.5 | 0.00 | 0.00 | 0.00 | 78 | 1020.5 |
| 20260503203205 | 13 | 226 | 9.7 | 25.7 | 0.00 | 0.00 | 0.00 | 77 | 1020.5 |
| 20260503202705 | 13 | 241 | 11.3 | 25.7 | 0.00 | 0.00 | 0.00 | 77 | 1020.4 |
| 20260503202206 | 13 | 276 | 12.9 | 25.7 | 0.00 | 0.00 | 0.00 | 76 | 1020.4 |
| 20260503201704 | 13 | 257 | 9.7 | 25.7 | 0.00 | 0.00 | 0.00 | 76 | 1020.4 |
| 20260503201204 | 13 | 237 | 6.4 | 14.5 | 0.00 | 0.00 | 0.00 | 74 | 1020.2 |
| 20260503200704 | 13 | 234 | 8.0 | 20.9 | 0.00 | 0.00 | 0.00 | 74 | 1020.2 |
| 20260503200501 | 13 | 219 | 9.7 | 20.9 | 0.00 | 0.00 | 0.00 | 73 | 1020.1 |
| 20260503195703 | 13 | 265 | 11.3 | 24.1 | 0.00 | 0.00 | 0.00 | 74 | 1020.1 |
| 20260503195311 | 13 | 247 | 9.7 | 20.9 | 0.00 | 0.00 | 0.00 | 73 | 1020.1 |
| 20260503195246 | 13 | 226 | 12.9 | 24.1 | 0.00 | 0.00 | 0.00 | 74 | 1020.1 |
| 20260503194206 | 13 | 251 | 12.9 | 20.9 | 0.00 | 0.00 | 0.00 | 73 | 1020.0 |
| 20260503193706 | 13 | 255 | 11.3 | 20.9 | 0.00 | 0.00 | 0.00 | 72 | 1020.1 |
| 20260503193204 | 13 | 247 | 9.7 | 20.9 | 0.00 | 0.00 | 0.00 | 71 | 1020.1 |
| 20260503192703 | 13 | 248 | 9.7 | 20.9 | 0.00 | 0.00 | 0.00 | 71 | 1020.1 |
| 20260503192203 | 13 | 250 | 12.9 | 20.9 | 0.00 | 0.00 | 0.00 | 71 | 1020.0 |
| 20260503191703 | 13 | 233 | 9.7 | 16.1 | 0.00 | 0.00 | 0.00 | 70 | 1019.9 |
| 20260503191455 | 14 | 243 | 9.7 | 16.1 | 0.00 | 0.00 | 0.00 | 70 | 1019.9 |
| 20260503191000 | 14 | 259 | 3.2 | 17.7 | 0.00 | 0.00 | 0.00 | 68 | 1019.8 |
| 20260503190457 | 14 | 217 | 6.4 | 17.7 | 0.00 | 0.00 | 0.00 | 69 | 1019.8 |
| 20260503185705 | 13 | 234 | 6.4 | 11.3 | 0.00 | 0.00 | 0.00 | 69 | 1019.8 |
| 20260503185450 | 14 | 266 | 6.4 | 19.3 | 0.00 | 0.00 | 0.00 | 68 | 1019.7 |
| 20260503184701 | 14 | 261 | 9.7 | 19.3 | 0.00 | 0.00 | 0.00 | 69 | 1019.7 |
| 20260503184202 | 14 | 228 | 9.7 | 17.7 | 0.00 | 0.00 | 0.00 | 69 | 1019.7 |
| 20260503183702 | 14 | 245 | 8.0 | 17.7 | 0.00 | 0.00 | 0.00 | 68 | 1019.5 |
| 20260503183202 | 14 | 233 | 9.7 | 20.9 | 0.00 | 0.00 | 0.00 | 68 | 1019.4 |
| 20260503182702 | 14 | 258 | 12.9 | 20.9 | 0.00 | 0.00 | 0.00 | 67 | 1019.4 |
| 20260503182201 | 14 | 223 | 9.7 | 22.5 | 0.00 | 0.00 | 0.00 | 66 | 1019.5 |
| 20260503181705 | 14 | 271 | 11.3 | 22.5 | 0.00 | 0.00 | 0.00 | 66 | 1019.4 |
| 20260503181611 | 15 | 275 | 6.4 | 17.7 | 0.00 | 0.00 | 0.00 | 65 | 1019.3 |
| 20260503181556 | 14 | 259 | 11.3 | 19.3 | 0.00 | 0.00 | 0.00 | 66 | 1019.4 |
| 20260503180203 | 15 | 262 | 9.7 | 22.5 | 0.00 | 0.00 | 0.00 | 65 | 1019.3 |
| 20260503175702 | 15 | 216 | 9.7 | 22.5 | 0.00 | 0.00 | 0.00 | 64 | 1019.2 |
| 20260503175455 | 15 | 257 | 9.7 | 20.9 | 0.00 | 0.00 | 0.00 | 64 | 1019.2 |
| 20260503174700 | 15 | 243 | 12.9 | 24.1 | 0.00 | 0.00 | 0.00 | 64 | 1019.1 |
| 20260503174201 | 15 | 244 | 11.3 | 24.1 | 0.00 | 0.00 | 0.00 | 63 | 1019.1 |
| 20260503173712 | 15 | 268 | 9.7 | 17.7 | 0.00 | 0.00 | 0.00 | 63 | 1019.0 |
| 20260503173200 | 15 | 238 | 6.4 | 24.1 | 0.00 | 0.00 | 0.00 | 63 | 1019.0 |
| 20260503172955 | 15 | 255 | 9.7 | 24.1 | 0.00 | 0.00 | 0.00 | 63 | 1019.0 |
| 20260503172200 | 15 | 283 | 8.0 | 24.1 | 0.00 | 0.00 | 0.00 | 63 | 1019.1 |
| 20260503171700 | 15 | 275 | 14.5 | 24.1 | 0.00 | 0.00 | 0.00 | 62 | 1019.0 |
| 20260503171456 | 15 | 259 | 14.5 | 24.1 | 0.00 | 0.00 | 0.00 | 62 | 1019.0 |
| 20260503170700 | 16 | 255 | 17.7 | 27.4 | 0.00 | 0.00 | 0.00 | 62 | 1019.0 |
| 20260503170200 | 16 | 248 | 17.7 | 30.6 | 0.00 | 0.00 | 0.00 | 63 | 1019.1 |
| 20260503160158 | 17 | 310 | 19.3 | 38.6 | 0.00 | 0.00 | 0.00 | 59 | 1019.2 |
| 20260503150657 | 18 | 321 | 24.1 | 33.8 | 0.00 | 0.00 | 0.00 | 53 | 1019.0 |
| 20260503150158 | 18 | 309 | 20.9 | 35.4 | 0.00 | 0.00 | 0.00 | 52 | 1019.0 |
| 20260503140157 | 20 | 329 | 22.5 | 32.2 | 0.00 | 0.00 | 0.00 | 44 | 1019.2 |
| 20260503131154 | 20 | 305 | 17.7 | 35.4 | 0.00 | 0.00 | 0.00 | 47 | 1019.7 |
| 20260503130654 | 20 | 306 | 16.1 | 35.4 | 0.00 | 0.00 | 0.00 | 45 | 1019.5 |
| 20260503130154 | 20 | 295 | 16.1 | 30.6 | 0.00 | 0.00 | 0.00 | 45 | 1019.5 |
| 20260503120154 | 21 | 324 | 6.4 | 16.1 | 0.00 | 0.00 | 0.00 | 34 | 1020.0 |
| 20260503110651 | 20 | 51 | 1.6 | 14.5 | 0.00 | 0.00 | 0.00 | 37 | 1020.2 |
| 20260503110151 | 20 | 39 | 8.0 | 14.5 | 0.00 | 0.00 | 0.00 | 37 | 1020.3 |
| 20260503100152 | 20 | 276 | 3.2 | 9.7 | 0.00 | 0.00 | 0.00 | 39 | 1020.7 |
| 20260503090445 | 18 | 252 | 8.0 | 17.7 | 0.00 | 0.00 | 0.00 | 42 | 1021.0 |
| 20260503081246 | 16 | 302 | 19.3 | 29.0 | 0.00 | 0.00 | 0.00 | 45 | 1021.1 |
| 20260503081231 | 16 | 281 | 17.7 | 29.0 | 0.00 | 0.00 | 0.00 | 44 | 1021.2 |
| 20260503080148 | 16 | 293 | 14.5 | 27.4 | 0.00 | 0.00 | 0.00 | 46 | 1021.2 |
| 20260503072647 | 16 | 190 | 1.6 | 9.7 | 0.00 | 0.00 | 0.00 | 51 | 1021.4 |
| 20260503072147 | 16 | 51 | 3.2 | 9.7 | 0.00 | 0.00 | 0.00 | 53 | 1021.4 |
| 20260503071647 | 15 | 188 | 0.0 | 6.4 | 0.00 | 0.00 | 0.00 | 54 | 1021.5 |
| 20260503071437 | 15 | 86 | 1.6 | 8.0 | 0.00 | 0.00 | 0.00 | 55 | 1021.5 |
| 20260503070646 | 15 | 80 | 1.6 | 8.0 | 0.00 | 0.00 | 0.00 | 57 | 1021.4 |
| 20260503070149 | 15 | 124 | 1.6 | 4.8 | 0.00 | 0.00 | 0.00 | 59 | 1021.4 |
| 20260503060138 | 10 | 323 | 0.0 | 3.2 | 0.00 | 0.00 | 0.00 | 62 | 1021.6 |
| 20260503054136 | 10 | 285 | 0.0 | 0.0 | 0.00 | 0.00 | 0.00 | 67 | 1021.5 |
| 20260503053635 | 9 | 285 | 0.0 | 0.0 | 0.00 | 0.00 | 0.00 | 69 | 1021.5 |
| 20260503053133 | 9 | 285 | 0.0 | 0.0 | 0.00 | 0.00 | 0.00 | 69 | 1021.5 |
| 20260503052634 | 9 | 285 | 0.0 | 1.6 | 0.00 | 0.00 | 0.00 | 71 | 1021.5 |
| 20260503052135 | 8 | 285 | 0.0 | 1.6 | 0.00 | 0.00 | 0.00 | 72 | 1021.5 |
| 20260503051631 | 8 | 285 | 0.0 | 0.0 | 0.00 | 0.00 | 0.00 | 74 | 1021.4 |
| 20260503051132 | 8 | 285 | 0.0 | 0.0 | 0.00 | 0.00 | 0.00 | 75 | 1021.4 |
| 20260503051050 | 7 | 285 | 0.0 | 0.0 | 0.00 | 0.00 | 0.00 | 76 | 1021.3 |
| 20260503050720 | 7 | 285 | 0.0 | 0.0 | 0.00 | 0.00 | 0.00 | 76 | 1021.3 |
| 20260503045635 | 6 | 285 | 0.0 | 0.0 | 0.00 | 0.00 | 0.00 | 77 | 1021.2 |
| 20260503045131 | 6 | 285 | 0.0 | 0.0 | 0.00 | 0.00 | 0.00 | 77 | 1021.2 |
| 20260503044631 | 6 | 285 | 0.0 | 0.0 | 0.00 | 0.00 | 0.00 | 75 | 1021.2 |
| 20260503044133 | 6 | 285 | 0.0 | 0.0 | 0.00 | 0.00 | 0.00 | 75 | 1021.2 |
| 20260503043632 | 6 | 285 | 0.0 | 0.0 | 0.00 | 0.00 | 0.00 | 75 | 1021.2 |
| 20260503043130 | 6 | 285 | 0.0 | 0.0 | 0.00 | 0.00 | 0.00 | 75 | 1021.3 |
| 20260503042631 | 6 | 285 | 0.0 | 0.0 | 0.00 | 0.00 | 0.00 | 75 | 1021.3 |
| 20260503042414 | 6 | 285 | 0.0 | 1.6 | 0.00 | 0.00 | 0.00 | 72 | 1021.1 |
| 20260503042322 | 6 | 285 | 0.0 | 1.6 | 0.00 | 0.00 | 0.00 | 74 | 1021.3 |
| 20260503041724 | 6 | 285 | 0.0 | 1.6 | 0.00 | 0.00 | 0.00 | 73 | 1021.2 |
| 20260503040631 | 6 | 285 | 0.0 | 1.6 | 0.00 | 0.00 | 0.00 | 71 | 1021.1 |
| 20260503040133 | 7 | 285 | 0.0 | 1.6 | 0.00 | 0.00 | 0.00 | 71 | 1021.1 |
| 20260503035631 | 7 | 285 | 0.0 | 1.6 | 0.00 | 0.00 | 0.00 | 70 | 1021.0 |
| 20260503035131 | 7 | 285 | 0.0 | 3.2 | 0.00 | 0.00 | 0.00 | 69 | 1021.0 |
| 20260503034631 | 7 | 285 | 0.0 | 3.2 | 0.00 | 0.00 | 0.00 | 69 | 1021.0 |
| 20260503034133 | 7 | 285 | 0.0 | 0.0 | 0.00 | 0.00 | 0.00 | 68 | 1021.0 |
| 20260503033631 | 7 | 285 | 0.0 | 0.0 | 0.00 | 0.00 | 0.00 | 68 | 1021.0 |
| 20260503033426 | 7 | 285 | 0.0 | 1.6 | 0.00 | 0.00 | 0.00 | 68 | 1021.0 |
| 20260503032632 | 7 | 285 | 0.0 | 1.6 | 0.00 | 0.00 | 0.00 | 68 | 1021.0 |
| 20260503032135 | 7 | 285 | 0.0 | 1.6 | 0.00 | 0.00 | 0.00 | 67 | 1021.0 |
| 20260503031631 | 7 | 285 | 0.0 | 3.2 | 0.00 | 0.00 | 0.00 | 67 | 1021.0 |
| 20260503031131 | 7 | 285 | 0.0 | 3.2 | 0.00 | 0.00 | 0.00 | 67 | 1021.0 |
| 20260503030631 | 7 | 285 | 3.2 | 3.2 | 0.00 | 0.00 | 0.00 | 68 | 1021.0 |
| 20260503030131 | 7 | 285 | 0.0 | 1.6 | 0.00 | 0.00 | 0.00 | 68 | 1021.1 |
| 20260503025631 | 7 | 285 | 0.0 | 0.0 | 0.00 | 0.00 | 0.00 | 68 | 1021.1 |
| 20260503025131 | 7 | 285 | 0.0 | 0.0 | 0.00 | 0.00 | 0.00 | 68 | 1021.0 |
| 20260503024631 | 7 | 285 | 0.0 | 0.0 | 0.00 | 0.00 | 0.00 | 68 | 1021.1 |
| 20260503024134 | 7 | 285 | 0.0 | 0.0 | 0.00 | 0.00 | 0.00 | 69 | 1021.1 |
| 20260503023632 | 7 | 285 | 0.0 | 0.0 | 0.00 | 0.00 | 0.00 | 69 | 1021.1 |
| 20260503023132 | 7 | 285 | 0.0 | 1.6 | 0.00 | 0.00 | 0.00 | 69 | 1021.2 |
| 20260503022630 | 7 | 285 | 0.0 | 1.6 | 0.00 | 0.00 | 0.00 | 70 | 1021.2 |
| 20260503022131 | 7 | 285 | 0.0 | 0.0 | 0.00 | 0.00 | 0.00 | 68 | 1021.2 |
| 20260503021928 | 7 | 285 | 0.0 | 0.0 | 0.00 | 0.00 | 0.00 | 67 | 1021.2 |
| 20260503021132 | 7 | 285 | 0.0 | 3.2 | 0.00 | 0.00 | 0.00 | 66 | 1021.3 |
| 20260503020632 | 7 | 285 | 1.6 | 3.2 | 0.00 | 0.00 | 0.00 | 66 | 1021.3 |